Theta_e
347 349 349 349 349 351 351 351 352 353 354 354 353 354 357 354 355 355 356 358 355 356 355 355 354 355 356 355 353 355 357 358 358 359 359 357 360 362 365 364 367 368 368 367 366 366 365 364 364 365 366 365 367 367 363 363 363 361 357 357 351 346 346 346 335 344 346 339 345 344 345 347 348 347 347 346 344 346 349 355 354 355 356 356 356
348 347 349 350 349 350 350 351 353 350 352 352 352 352 355 355 354 355 355 357 355 358 355 355 357 355 353 353 353 354 355 354 356 358 357 357 363 363 365 366 366 367 367 368 368 366 366 363 365 365 366 367 368 367 365 363 363 361 357 354 353 350 343 343 336 346 340 337 334 338 342 343 347 345 344 344 345 347 350 356 354 352 353 354 356
347 347 348 348 349 349 350 350 351 351 352 351 353 354 355 355 356 358 355 354 356 356 356 355 357 358 356 355 354 353 357 359 357 358 359 357 360 362 365 367 368 367 367 367 367 367 368 366 365 367 369 368 365 365 363 361 362 359 356 351 348 346 346 347 344 343 335 341 343 341 335 335 340 342 343 344 345 346 348 348 347 346 348 351 352
345 347 346 347 349 350 350 350 350 351 351 352 352 353 353 356 357 358 356 356 357 358 358 359 360 360 362 361 358 357 356 359 361 360 360 357 356 361 365 367 367 366 366 366 367 368 369 367 366 367 368 369 365 364 363 360 362 360 356 355 347 344 342 342 340 347 349 344 335 337 334 333 329 336 340 342 343 345 345 344 344 345 347 347 349
338 341 347 347 348 349 350 352 352 350 351 352 352 352 352 354 357 359 359 358 359 360 359 361 360 360 360 362 362 360 360 358 358 357 358 359 355 359 362 365 367 365 365 366 366 368 369 369 367 369 369 368 369 365 363 359 360 360 357 354 350 345 342 343 342 347 347 352 344 338 332 333 332 333 336 338 342 341 342 343 345 344 343 347 344
343 345 347 348 349 350 352 353 352 351 352 354 354 354 355 356 358 360 358 359 359 361 362 360 360 358 357 355 354 354 353 353 353 353 354 355 352 355 361 364 364 366 365 366 367 366 368 369 370 369 369 369 369 366 364 361 360 358 357 352 348 349 349 347 343 347 347 350 351 349 349 338 336 336 337 330 344 342 343 343 340 344 344 345 346
345 347 349 348 349 350 352 353 353 352 353 355 355 356 357 357 359 360 360 361 361 362 362 362 359 358 358 356 355 354 353 356 360 359 357 358 357 354 358 363 365 364 364 366 366 368 368 370 371 369 368 369 370 368 365 362 359 359 355 352 353 354 347 345 345 341 347 350 348 346 347 346 344 340 334 338 334 340 342 340 340 342 344 343 342
346 349 349 349 350 351 352 354 354 353 355 355 355 357 358 359 359 360 361 361 363 364 362 362 360 359 359 359 358 357 356 358 361 362 361 360 357 355 355 359 366 366 364 366 368 368 368 369 372 370 368 368 368 366 366 363 362 361 357 356 356 357 353 344 344 345 337 342 345 345 345 346 347 345 345 340 337 334 335 340 341 340 341 340 339
346 346 350 349 350 351 354 355 356 355 355 356 356 357 359 360 361 361 361 362 362 364 364 363 363 362 361 360 359 359 360 361 362 363 361 360 358 357 358 358 363 368 367 365 367 368 368 369 371 371 369 369 368 367 366 365 363 361 360 357 356 357 356 347 348 349 341 340 342 343 346 346 342 343 345 346 340 335 334 334 336 338 339 339 339
346 347 351 351 351 353 355 357 357 355 357 359 359 359 359 360 361 361 362 363 364 365 364 363 363 363 361 361 360 360 361 361 360 360 361 360 357 360 360 362 360 366 369 367 367 368 368 369 368 369 371 369 366 366 366 365 365 363 362 359 357 355 357 350 346 351 348 350 345 345 342 342 342 342 340 341 340 342 335 333 334 335 334 336 341
341 346 352 353 353 354 356 357 358 357 357 358 358 359 360 361 362 361 362 363 364 364 365 362 362 362 362 362 362 361 361 360 359 360 361 360 358 360 361 362 363 364 366 367 366 368 368 369 367 367 370 370 368 367 366 363 362 363 363 362 358 356 355 351 347 350 351 352 350 347 344 342 340 338 339 338 339 338 337 333 333 335 333 335 341
344 344 351 353 354 354 355 357 358 357 358 358 358 359 360 361 363 363 363 364 364 364 365 363 362 363 364 363 362 363 363 360 359 359 361 361 360 361 363 363 365 364 367 363 364 363 368 368 369 368 368 368 367 369 368 366 364 363 362 362 360 357 356 355 349 348 351 351 351 346 346 346 345 343 342 342 342 341 339 336 336 340 339 337 339
348 350 352 351 352 353 353 357 358 357 356 359 359 359 361 364 364 363 363 365 364 364 364 364 364 364 363 363 364 365 364 363 361 361 363 364 363 363 363 362 364 364 364 361 361 364 366 368 368 367 366 368 369 368 370 368 366 362 363 361 360 358 355 355 350 348 349 350 348 348 345 345 345 344 344 344 342 343 342 335 336 337 336 336 340
346 349 352 353 353 354 355 356 358 357 357 358 359 360 362 363 365 365 365 366 367 366 365 364 364 365 365 365 365 366 365 364 362 361 362 365 366 365 362 361 363 364 364 364 360 364 364 367 370 369 370 370 370 370 370 370 369 364 363 362 360 360 358 356 354 350 351 352 352 349 349 345 345 346 342 342 343 340 339 338 339 339 338 335 340
345 349 350 352 353 355 354 356 358 358 357 357 359 361 363 364 365 366 367 367 366 365 365 364 363 365 366 365 367 367 365 363 362 362 363 364 365 364 365 360 360 364 363 366 367 365 366 367 369 370 370 371 371 370 369 370 370 367 364 363 363 360 358 354 355 352 348 349 353 351 350 349 348 347 341 340 340 342 340 340 340 336 334 333 335
341 346 350 353 356 357 356 356 358 359 358 358 359 360 362 364 367 367 368 368 367 367 366 366 365 365 366 366 368 368 367 365 363 365 364 365 367 366 366 364 362 361 367 367 367 366 366 365 368 369 372 370 371 371 371 369 370 368 365 364 363 360 358 356 355 355 350 351 351 353 352 348 350 346 347 344 339 342 342 343 343 340 337 331 331
340 342 349 353 355 357 356 357 358 360 359 358 361 362 363 364 366 368 369 369 369 368 367 367 366 366 367 368 368 367 365 363 361 363 361 364 366 366 363 364 363 362 362 367 368 370 368 366 366 367 370 370 371 371 370 369 370 369 365 365 362 359 359 357 354 355 354 349 350 351 350 350 351 352 349 347 348 347 345 342 342 340 340 336 332
334 341 352 353 355 357 357 357 359 360 360 360 362 363 364 365 367 368 368 368 369 369 368 369 369 368 368 369 368 367 365 363 362 362 364 363 364 366 365 363 364 360 359 361 366 367 370 370 368 368 368 368 368 367 369 369 370 367 366 366 364 363 359 358 357 355 355 352 350 350 351 349 350 352 350 348 350 349 345 344 344 344 344 337 337
337 341 350 351 353 356 358 357 358 361 363 362 362 362 363 365 367 367 367 368 368 368 368 368 369 367 367 367 368 367 366 366 363 364 366 365 362 363 364 363 363 365 363 364 365 366 369 369 369 369 368 368 368 367 369 370 370 367 364 364 365 365 361 358 358 356 355 353 350 349 352 350 351 350 351 348 349 349 346 345 345 345 344 344 342
334 341 347 351 352 355 356 357 357 359 362 362 361 362 361 364 366 366 367 369 369 368 369 368 368 367 366 369 370 370 368 367 366 365 363 364 363 362 364 362 362 363 362 363 362 365 367 366 366 366 363 363 365 366 366 370 369 368 364 362 362 365 362 358 357 356 355 355 351 350 352 352 351 351 350 350 348 351 348 345 345 345 345 345 345
338 341 346 349 352 353 356 357 357 359 362 362 361 361 361 362 364 364 365 366 366 367 368 368 368 368 368 369 368 369 368 367 367 366 365 365 366 366 363 365 366 364 364 363 364 365 367 367 365 366 362 363 367 366 366 367 369 368 366 365 364 365 363 360 359 357 356 357 354 350 351 353 353 350 350 349 347 348 350 346 346 345 343 346 345
340 340 344 348 352 353 355 357 358 358 359 360 360 360 360 360 362 362 363 363 364 365 368 369 368 367 366 368 368 369 370 368 367 365 365 365 366 367 366 367 365 366 366 363 366 366 366 367 366 367 367 364 367 368 364 366 367 367 365 364 364 364 364 361 360 359 358 356 356 353 350 351 354 350 350 348 348 346 347 344 344 344 344 345 347
337 340 340 343 351 353 354 356 357 357 358 359 360 359 359 359 360 361 360 362 362 363 366 369 367 366 367 368 368 369 370 369 367 365 365 363 365 368 369 367 365 365 368 366 365 367 369 368 368 368 369 367 368 367 367 366 367 368 365 363 364 364 363 360 359 358 357 358 355 355 352 351 351 350 350 349 347 348 347 345 344 345 346 345 347
338 340 339 341 345 354 357 357 358 358 359 359 359 360 359 358 359 359 358 360 360 362 364 368 368 367 368 368 369 368 368 367 365 365 364 363 363 365 368 368 367 365 365 369 367 368 370 371 367 368 369 369 368 366 367 366 367 368 367 365 364 365 365 362 360 359 358 358 356 355 354 352 351 350 349 349 348 347 348 348 346 347 348 347 348
337 341 342 343 345 353 359 359 362 361 356 359 359 359 358 358 359 358 358 359 360 360 363 366 366 365 365 366 367 367 367 365 364 363 362 362 362 362 365 367 367 365 363 367 369 369 370 371 368 367 368 369 369 368 369 367 367 369 369 367 365 365 365 365 362 361 361 360 359 356 356 355 352 350 350 348 348 349 348 347 346 346 347 347 347
347 347 346 346 355 360 362 363 364 358 355 361 362 358 358 358 358 359 358 359 359 357 361 364 364 363 365 366 368 367 365 365 363 361 361 360 360 361 362 366 367 366 363 362 368 368 368 370 371 369 369 370 372 371 371 369 366 367 368 368 366 365 365 366 364 362 362 361 361 359 357 358 354 350 350 349 350 349 349 347 348 348 348 349 348
343 346 346 353 358 358 360 362 357 356 356 357 357 357 357 359 359 358 359 359 360 359 362 363 364 362 364 366 368 367 365 363 364 362 361 360 359 359 359 361 366 366 364 360 362 368 369 370 372 371 369 370 371 371 371 371 369 368 369 369 366 365 364 366 365 363 362 362 362 361 360 358 357 354 351 351 350 350 348 349 350 349 349 349 347
345 347 348 348 351 354 358 360 357 355 357 356 356 356 358 359 358 358 358 358 359 360 361 363 365 364 366 367 369 369 367 367 365 368 365 362 361 360 362 361 364 366 364 362 359 364 368 369 371 371 371 372 372 371 372 373 372 369 368 369 368 364 363 365 365 365 363 362 363 362 360 359 359 358 354 354 353 350 350 349 349 349 349 348 346
345 350 351 351 350 354 356 357 356 354 355 356 355 356 360 361 359 361 357 357 361 362 363 363 365 366 368 370 371 371 370 369 366 369 367 365 363 364 364 364 365 365 366 364 363 359 366 369 370 372 372 371 370 371 371 372 372 371 369 367 368 365 363 363 364 364 364 362 361 362 362 360 362 355 346 348 347 345 351 349 351 350 350 348 347
336 345 351 356 355 356 357 358 360 357 358 355 356 359 357 356 357 358 359 359 362 365 365 364 364 367 370 372 372 373 372 371 368 369 371 367 363 364 362 362 363 364 367 368 368 364 362 366 369 371 372 371 370 372 360 344 350 371 370 368 368 368 365 363 364 363 362 361 359 359 361 350 347 345 343 339 338 337 340 349 353 352 350 349 347
333 344 344 351 353 357 359 359 361 360 358 357 358 358 356 355 356 355 358 359 359 367 365 364 366 370 371 373 373 373 373 373 371 369 371 371 367 365 366 368 368 366 368 372 368 365 362 362 366 369 370 370 371 369 343 336 339 344 365 369 368 368 368 364 363 364 362 360 359 359 360 357 349 345 349 336 337 333 334 337 343 345 345 351 348
329 333 343 347 350 353 359 359 358 359 359 358 361 357 356 354 355 355 356 357 358 361 362 367 369 371 372 373 372 373 373 373 372 371 372 372 369 368 369 370 367 366 371 368 367 367 368 364 362 367 369 370 371 351 335 334 336 337 344 370 368 367 367 365 363 361 363 361 358 358 358 360 361 360 359 353 343 334 332 333 335 340 340 341 342
332 337 341 339 338 342 357 357 358 357 357 357 358 356 357 357 358 358 358 356 356 357 363 368 368 369 372 373 374 374 373 373 373 372 372 372 372 369 367 367 366 369 369 370 371 368 368 367 365 367 367 369 370 344 332 332 334 334 335 350 367 367 366 365 365 363 362 363 361 358 357 359 358 345 354 359 357 351 332 330 333 336 339 336 334
329 330 335 344 348 345 341 353 360 359 356 356 358 356 358 357 355 358 358 360 361 359 364 365 368 369 371 373 374 373 373 373 374 373 372 372 371 370 367 366 367 369 369 369 368 369 369 370 368 367 369 369 371 343 329 328 330 330 333 342 366 366 366 366 366 365 363 363 362 360 358 357 359 361 361 360 359 356 352 348 347 349 351 347 336
329 331 331 342 356 358 353 349 349 352 356 356 355 355 358 358 357 356 357 363 361 362 366 366 366 369 371 372 373 373 373 373 374 373 372 371 370 371 369 367 366 367 368 369 368 368 369 370 368 366 365 365 369 337 325 325 326 326 329 333 364 363 364 366 366 367 366 364 364 363 361 358 361 363 361 357 359 357 355 352 351 349 349 349 351
332 354 367 364 355 358 355 357 354 350 351 353 355 356 355 356 356 354 356 358 362 364 364 366 367 368 369 372 372 372 372 373 372 372 371 370 370 371 370 369 367 366 368 369 370 369 368 368 368 367 364 365 366 330 323 323 324 324 326 349 364 363 362 364 366 367 367 367 366 364 364 361 362 364 347 335 346 359 356 353 350 350 349 349 349
350 352 356 368 366 362 361 367 364 357 350 350 351 355 356 355 354 352 355 355 357 360 360 366 366 367 368 371 371 371 371 371 371 370 370 369 370 371 371 371 367 365 365 366 368 368 370 368 368 368 367 366 366 339 320 320 322 322 328 356 362 363 363 362 364 366 367 367 367 366 365 363 362 364 344 329 334 341 356 354 352 350 349 349 348
342 360 355 361 361 362 366 364 362 363 357 353 352 354 357 357 355 353 353 354 354 357 362 366 367 368 369 370 371 371 371 370 371 369 369 369 369 370 370 370 367 365 362 364 367 368 369 369 367 367 366 367 367 345 316 318 319 319 332 358 362 362 362 362 362 364 365 367 366 349 360 364 363 364 332 327 329 342 357 355 353 351 349 348 348
357 355 353 357 365 366 365 365 366 363 361 358 355 353 354 355 356 353 353 355 357 359 361 362 367 370 369 369 370 371 370 369 370 369 369 369 368 369 370 370 368 367 365 365 365 366 367 369 368 367 354 362 367 346 315 318 317 317 332 360 362 362 361 361 361 361 363 365 367 355 344 352 357 354 323 325 325 339 357 357 355 352 349 348 348
356 354 358 363 365 361 364 360 355 363 363 359 353 352 355 355 355 353 352 354 359 362 365 366 368 370 371 370 370 372 372 370 369 369 369 369 369 369 369 368 368 367 365 365 363 364 365 367 368 368 367 366 366 369 337 315 315 316 320 357 363 361 359 360 361 360 361 364 364 366 351 330 332 333 321 321 321 328 353 358 356 352 350 347 351
353 358 356 359 362 362 361 365 368 364 359 357 353 354 359 360 361 359 357 357 362 365 367 368 368 368 368 369 369 370 369 368 369 368 368 367 368 367 367 368 366 366 366 366 365 364 363 364 365 367 368 368 367 367 356 313 315 314 317 331 363 363 362 361 361 360 360 360 361 360 362 336 325 326 317 317 318 321 333 357 357 354 354 352 345
356 353 355 360 357 361 358 356 363 365 365 358 358 359 359 360 359 358 361 360 364 366 367 369 369 368 366 367 367 370 370 368 369 370 369 368 369 370 368 368 367 367 368 366 368 366 364 363 364 364 366 368 362 345 372 319 315 313 315 318 353 364 362 362 361 361 360 359 360 361 362 342 323 323 316 314 315 318 324 352 357 334 331 331 351
354 357 356 355 358 357 357 360 360 360 360 362 360 358 358 359 358 360 361 363 364 364 367 369 369 367 367 367 368 368 368 368 368 370 370 368 369 369 369 370 369 367 367 366 366 366 364 361 361 362 363 365 369 366 337 341 314 313 312 314 323 345 338 365 360 358 359 360 361 362 359 335 320 320 314 313 314 316 320 342 329 322 325 327 341
353 355 355 356 358 357 358 361 364 362 361 362 361 358 358 358 360 364 363 363 366 367 370 368 368 366 365 365 366 366 368 369 369 370 369 370 369 369 369 368 369 366 364 363 363 362 362 359 359 358 360 361 368 368 344 330 328 311 312 312 314 321 331 356 362 360 361 361 360 361 355 326 315 314 313 312 314 315 331 325 322 320 324 328 348
353 353 355 356 356 356 357 359 363 366 364 364 363 360 360 362 367 369 366 366 367 368 368 367 366 365 365 363 364 367 368 369 369 369 368 367 369 368 366 368 368 364 362 360 360 360 361 360 359 358 360 361 360 363 363 349 323 315 312 311 313 317 320 323 351 360 359 360 343 332 328 318 313 314 313 313 314 315 319 321 320 318 327 345 348
352 353 353 354 354 354 354 354 357 360 362 364 366 367 364 363 366 367 367 367 367 366 364 364 364 365 364 363 364 365 367 367 366 366 367 367 367 365 363 365 363 362 363 362 360 358 357 358 358 359 361 362 369 366 367 370 332 321 316 313 313 314 317 320 328 350 340 337 332 326 322 315 314 318 324 327 329 327 319 321 320 321 343 345 345
352 352 352 353 352 351 351 351 351 355 358 360 363 364 364 364 365 366 368 367 365 364 362 363 363 362 363 363 361 358 359 364 367 365 365 365 363 363 364 362 362 360 361 359 360 359 358 357 356 357 357 360 363 362 363 362 369 350 340 331 321 323 315 317 329 341 337 346 345 338 338 320 322 319 324 324 327 325 322 326 331 335 344 345 343
350 350 353 353 352 351 351 351 350 353 355 356 357 358 361 363 365 366 368 368 366 363 361 363 363 364 363 364 363 364 364 363 364 363 361 362 362 363 362 361 360 361 359 358 359 357 356 357 356 358 357 357 358 360 361 359 348 346 349 350 341 335 335 333 335 342 348 351 353 336 325 328 329 326 329 332 334 332 328 330 333 338 342 343 341
349 351 351 351 350 349 350 350 350 353 354 354 355 358 360 362 364 367 369 366 364 363 366 365 365 364 364 364 364 363 362 361 361 363 366 364 363 362 374 364 348 341 346 352 360 361 359 355 351 351 352 352 354 355 355 319 325 313 323 333 344 343 340 340 331 327 345 350 352 349 334 332 330 329 331 333 333 331 329 332 334 339 341 342 341
349 350 350 350 349 349 348 348 348 350 351 351 352 353 356 359 362 363 364 363 364 364 363 362 363 361 361 360 362 360 362 360 359 359 360 345 329 317 337 352 341 318 309 310 318 339 335 338 342 346 349 342 339 339 318 306 303 302 301 303 307 309 314 330 327 322 327 345 348 341 337 334 332 333 333 333 332 331 330 330 333 331 338 340 339
346 347 347 347 346 346 346 347 347 348 348 349 350 351 352 354 357 358 358 358 357 354 354 355 354 355 353 358 358 359 361 360 360 357 355 347 344 343 304 309 319 317 305 299 299 300 304 310 328 338 337 324 318 310 303 303 301 301 301 300 299 300 302 303 306 326 333 335 344 341 339 339 335 336 335 335 333 331 330 331 332 334 338 337 334
Wind_Speed
17 21 21 22 21 19 17 17 17 19 18 18 18 17 16 15 15 16 14 13 13 12 12 12 12 11 9 10 10 9 9 9 8 8 7 7 8 8 9 8 8 8 8 7 7 6 6 5 4 5 4 4 3 3 2 1 2 1 2 2 2 1 2 4 3 2 3 1 2 2 3 2 5 3 2 4 3 4 3 3 5 3 3 2 5
19 18 21 22 19 20 18 16 17 19 17 18 18 18 17 18 17 15 13 14 14 14 12 13 11 10 10 10 10 10 9 9 9 9 9 8 8 7 8 8 9 8 7 8 7 7 6 5 5 4 4 4 3 2 1 1 2 2 3 3 0 1 1 2 5 3 3 5 5 4 1 3 1 3 4 3 2 4 3 3 2 2 3 3 3
17 19 22 20 22 22 18 17 17 19 19 19 18 18 18 17 16 14 13 15 14 14 13 12 12 11 11 10 10 9 9 9 9 9 9 9 9 8 7 8 8 8 9 8 7 7 7 6 5 5 5 4 3 4 3 3 3 3 3 1 3 4 1 3 2 5 2 4 3 0 4 5 4 2 3 3 2 4 4 5 5 5 6 5 3
18 21 23 22 21 20 19 18 18 18 18 18 18 19 17 15 15 15 15 16 14 14 14 14 13 12 11 10 11 10 9 9 9 8 9 9 10 10 9 8 9 9 9 9 8 8 7 7 6 5 5 4 4 4 4 4 3 3 3 2 1 3 5 5 3 4 6 5 4 3 2 3 6 4 4 3 5 4 5 5 4 4 4 4 2
20 21 22 21 22 22 21 19 19 19 19 19 19 18 15 20 18 17 15 15 14 14 15 13 12 12 11 10 10 10 9 9 9 9 9 10 10 10 11 11 10 9 9 10 9 8 7 7 6 5 5 5 4 4 4 4 4 4 3 2 3 3 2 5 3 3 1 4 1 3 3 4 4 7 6 1 1 3 5 4 4 3 5 2 3
21 23 24 24 23 21 20 20 20 19 20 19 19 19 18 18 18 18 15 15 15 16 16 14 12 13 12 12 12 11 10 11 11 11 11 11 12 10 11 11 11 10 9 10 10 8 8 7 7 6 5 5 5 4 4 3 4 4 5 4 5 3 5 3 4 2 1 1 2 4 3 4 5 4 1 4 0 3 2 2 4 3 5 4 4
18 19 21 22 22 22 22 21 21 21 20 19 19 19 19 18 19 18 16 14 15 15 17 13 14 13 15 14 13 13 11 10 10 10 10 10 10 11 10 11 11 11 11 10 9 9 8 7 7 7 6 5 5 4 4 4 4 4 4 3 2 3 2 2 4 5 3 2 4 4 4 4 6 2 2 4 3 2 1 3 4 6 6 5 5
23 23 23 23 24 24 25 24 21 21 21 20 20 19 21 19 20 19 16 16 15 14 17 15 14 14 14 14 12 12 12 11 11 10 9 9 10 11 10 10 11 10 10 10 10 9 9 8 8 7 7 6 6 5 5 4 3 3 2 4 2 3 3 4 4 5 5 4 4 4 3 1 1 1 3 1 1 4 3 4 4 6 6 6 5
20 21 24 23 24 25 23 23 22 22 21 21 20 19 20 19 19 19 18 16 16 18 17 17 15 14 14 13 12 11 11 10 10 9 9 9 10 9 8 9 10 10 10 10 10 10 9 8 8 8 7 7 6 6 6 5 5 5 5 4 4 4 4 4 5 3 5 6 5 4 2 2 4 3 2 2 2 3 4 5 2 3 5 4 5
19 23 23 23 24 24 24 23 22 21 21 21 20 19 20 18 19 20 20 17 16 18 18 19 18 15 15 14 15 12 11 10 9 10 9 9 9 9 8 8 9 10 10 10 10 11 10 10 9 9 8 7 6 6 6 6 5 6 6 6 5 5 4 5 5 4 5 2 6 4 4 3 2 3 4 4 4 3 2 4 8 5 5 3 2
21 20 21 23 23 23 23 23 23 21 19 20 20 20 20 20 21 22 21 17 17 19 19 20 19 17 15 16 16 15 14 12 10 10 10 10 10 10 9 9 8 9 10 10 11 11 11 10 10 9 8 7 7 7 6 7 7 6 6 7 6 6 5 5 6 6 4 3 4 5 5 4 4 4 4 5 4 4 5 6 7 10 8 6 2
20 19 20 21 20 21 22 22 22 21 20 21 20 20 20 20 21 22 21 20 18 18 19 19 18 17 16 17 17 15 14 12 12 11 11 11 11 10 9 9 9 9 9 9 10 12 10 10 10 10 8 8 8 7 7 6 6 7 6 6 6 6 6 5 5 6 6 5 5 6 6 5 5 5 5 4 3 4 5 7 2 4 4 4 4
18 18 18 19 20 22 23 23 22 22 20 22 22 21 21 21 23 23 22 22 19 20 20 20 19 18 16 16 16 14 14 13 12 12 11 11 10 11 10 10 9 9 10 10 11 13 10 10 10 9 8 8 8 8 8 8 6 6 6 8 7 8 7 7 6 7 8 6 6 6 6 6 5 5 4 3 6 4 3 4 5 2 5 3 4
18 18 19 19 20 21 22 22 23 22 23 23 22 20 19 19 22 23 23 22 20 20 20 20 19 18 17 15 15 14 14 13 12 12 12 11 10 11 11 11 10 11 11 11 10 12 12 11 11 11 9 9 9 9 8 8 7 7 8 8 9 7 7 8 7 8 8 8 6 6 6 6 6 5 5 4 4 6 5 6 4 3 2 5 5
15 17 19 20 22 23 22 22 22 22 24 23 22 21 20 20 22 23 22 22 21 20 19 20 19 19 17 16 15 13 13 13 12 11 11 12 12 12 11 11 11 10 11 10 11 10 12 11 12 11 11 10 10 9 8 8 8 8 7 8 7 7 8 8 8 9 8 9 9 7 6 6 5 5 6 6 5 5 5 5 5 5 5 4 4
15 16 19 21 21 22 21 21 22 22 24 22 23 21 21 21 23 24 24 23 22 21 20 20 19 17 18 18 17 15 12 12 11 11 11 12 12 11 11 11 10 9 10 10 11 11 11 11 12 12 11 11 11 10 10 9 9 8 8 8 9 7 8 9 8 9 9 10 10 8 6 7 6 6 5 5 5 4 4 4 4 5 5 5 5
16 19 18 20 21 22 21 22 21 22 22 23 23 23 23 21 22 23 23 22 22 22 20 19 19 18 19 18 17 16 16 16 14 16 16 13 12 12 11 12 12 10 10 10 11 11 11 11 12 12 12 11 11 11 11 10 9 9 9 9 9 9 9 9 9 8 9 9 9 10 8 7 6 6 6 5 5 4 3 4 3 4 4 5 5
18 20 19 21 21 23 22 21 23 24 25 24 23 23 21 21 23 24 23 23 22 21 21 19 20 20 19 19 18 17 16 16 15 15 14 13 13 12 12 12 12 12 11 10 11 12 11 12 11 11 12 12 12 12 11 11 10 9 10 9 10 9 9 8 9 9 9 9 9 9 9 7 7 6 7 6 5 5 5 4 5 4 4 5 5
17 19 18 19 20 22 23 24 25 25 24 24 23 23 21 21 22 24 25 25 24 21 20 17 19 16 15 18 19 18 16 15 15 14 13 14 15 14 14 13 13 12 11 10 10 12 12 12 12 12 11 12 12 12 12 11 11 9 10 10 10 10 9 9 9 9 9 9 9 10 9 8 8 8 7 8 6 6 6 5 5 5 5 6 5
19 19 19 20 22 24 25 24 25 25 24 23 25 23 25 23 23 22 23 22 22 21 19 19 19 18 17 17 17 16 16 15 15 15 15 15 16 15 15 15 14 12 13 13 12 12 13 14 13 13 13 13 13 13 13 12 11 10 10 10 10 11 11 11 10 10 9 9 10 10 10 8 8 7 7 7 7 6 7 7 6 6 6 6 6
17 17 18 21 22 23 24 24 23 22 21 21 22 24 23 22 23 24 24 24 23 22 21 19 18 18 18 19 19 18 19 17 17 17 16 15 14 14 14 13 12 13 12 13 13 13 13 13 14 13 14 12 12 12 11 11 11 11 10 11 11 12 12 11 10 11 11 10 10 10 10 10 9 8 8 8 8 8 8 7 7 7 7 7 7
16 18 16 18 20 22 22 20 18 20 22 24 23 23 23 24 22 23 23 22 24 22 20 19 18 18 20 20 20 18 18 17 18 17 17 16 15 14 14 13 14 13 13 14 14 14 13 14 14 13 13 13 12 12 13 12 12 12 13 10 11 12 13 12 11 12 12 10 10 11 11 11 10 10 9 9 8 9 9 9 8 8 8 8 8
16 16 17 16 17 18 18 20 21 22 22 23 22 23 23 25 23 22 23 24 24 24 21 19 18 18 20 19 19 19 18 19 20 18 19 18 16 16 14 14 14 14 14 13 14 14 13 13 13 12 12 12 12 13 12 12 13 14 14 13 12 13 14 14 14 13 13 12 12 11 12 11 10 11 11 10 10 9 9 10 10 9 8 9 9
15 14 12 16 16 16 14 17 18 17 18 22 22 22 22 23 23 22 25 25 24 22 21 20 19 20 21 20 19 18 20 20 20 18 20 19 18 16 15 15 16 14 14 13 14 14 14 13 14 13 13 13 13 13 13 13 14 14 14 14 13 13 14 14 14 14 14 13 13 12 12 13 12 12 12 10 10 10 9 9 9 9 9 9 8
14 12 13 13 15 15 13 15 16 16 19 19 20 21 21 22 23 23 23 24 22 21 21 21 21 22 22 20 21 20 20 21 21 19 21 20 20 18 16 17 16 16 16 14 13 14 13 14 14 14 14 14 14 14 14 15 14 14 15 14 14 14 14 15 15 14 14 14 14 14 13 13 13 12 12 12 11 12 10 10 10 9 9 9 8
8 9 9 11 10 12 13 14 14 17 18 16 17 20 20 21 23 23 22 21 22 21 22 21 21 21 20 22 21 20 21 22 22 21 21 21 19 18 17 16 17 17 16 16 15 14 14 15 15 14 14 15 14 14 15 15 16 15 15 15 14 14 14 15 15 15 15 14 14 15 14 14 14 14 13 13 12 14 12 11 11 10 10 9 9
9 10 10 9 9 13 15 14 15 17 17 17 18 19 19 18 20 21 20 21 20 20 19 21 21 21 20 21 21 20 20 21 20 20 18 19 19 19 19 18 17 17 17 17 17 16 15 15 15 15 15 15 15 15 15 15 15 15 15 15 15 15 14 14 15 16 16 16 16 15 15 15 15 15 15 14 14 14 13 13 12 11 11 10 10
7 8 9 9 8 9 11 13 15 16 17 17 18 19 18 17 19 19 20 20 18 19 20 20 19 19 19 20 19 19 20 19 18 17 17 18 18 18 17 16 16 17 18 18 18 18 16 16 16 16 15 15 15 15 15 15 15 15 15 15 15 14 15 15 15 16 16 16 16 17 17 17 17 16 16 15 14 14 12 13 12 11 11 11 11
9 9 9 11 11 10 12 14 15 16 18 19 17 17 16 16 17 17 19 20 18 18 19 19 19 18 18 18 17 17 17 17 17 16 17 17 17 16 15 16 16 16 15 17 18 18 17 16 16 16 16 15 15 15 14 15 15 16 15 15 15 15 15 15 15 16 16 16 16 16 17 17 17 17 19 16 16 14 13 13 12 12 12 12 11
11 11 12 11 12 12 12 13 14 15 16 17 16 15 17 18 17 18 17 17 15 16 16 18 18 17 16 16 17 16 16 16 17 17 17 17 17 17 18 17 17 17 15 15 15 16 18 18 17 17 16 15 14 13 15 19 16 14 15 14 14 15 15 15 15 15 16 17 18 16 16 19 18 19 18 19 18 17 17 14 12 12 13 12 12
9 10 9 10 10 12 13 13 14 15 16 16 15 15 15 18 18 18 17 16 16 14 16 17 17 15 15 16 16 16 16 17 17 17 16 16 17 16 15 15 15 16 15 14 15 17 17 17 18 17 17 15 14 13 18 19 20 19 16 15 15 14 15 16 16 15 16 16 16 17 16 16 17 16 18 20 18 18 18 17 15 15 13 13 13
5 7 7 8 8 9 12 14 15 16 17 16 14 15 16 17 17 17 17 17 16 17 18 16 15 14 15 16 15 16 16 16 16 17 16 16 16 15 14 15 15 17 14 15 16 16 15 16 16 18 18 16 15 16 19 21 21 21 18 15 15 14 14 15 16 16 15 15 16 16 16 13 15 18 17 16 18 19 18 18 16 14 15 15 14
8 5 5 6 6 6 9 10 11 13 15 17 16 16 16 16 15 15 15 17 18 18 16 15 14 15 15 15 14 15 15 15 16 16 14 14 15 16 16 16 17 16 15 15 15 15 16 16 16 16 18 17 16 17 20 22 23 23 22 19 14 15 15 15 16 17 16 15 14 14 15 13 13 19 16 16 14 15 16 20 18 15 14 15 14
9 11 9 5 3 2 2 6 9 11 14 15 16 17 15 16 16 15 17 15 15 15 15 16 15 15 15 15 15 15 15 15 14 14 15 15 16 16 17 16 15 15 15 15 16 16 15 15 15 15 15 16 16 15 20 22 23 24 24 20 16 16 16 16 16 16 15 16 16 15 14 14 14 12 14 16 15 15 13 12 13 11 11 12 13
9 9 8 3 2 3 2 3 6 8 9 12 14 14 14 15 16 17 17 14 14 15 13 15 16 16 16 16 16 16 15 15 15 15 15 16 16 15 16 15 15 16 15 15 16 16 15 15 16 16 15 15 15 16 21 22 23 24 23 20 17 17 16 15 16 16 16 17 17 16 16 15 14 13 13 17 15 16 15 14 14 15 16 16 14
4 4 6 3 1 1 2 2 2 5 8 10 12 14 15 16 16 17 16 16 15 14 14 15 16 17 17 17 17 16 15 15 15 16 16 17 16 16 16 14 13 14 14 14 14 15 16 16 16 16 17 17 16 17 21 23 24 23 24 15 15 17 16 15 15 16 16 15 16 17 16 16 14 14 14 21 18 15 16 17 17 16 16 16 15
3 1 2 3 1 2 3 3 4 5 7 9 10 13 14 15 17 17 16 17 16 15 16 15 17 17 17 16 16 16 16 16 16 17 17 17 16 15 14 13 14 14 14 14 14 15 13 15 17 16 17 16 16 15 21 23 24 25 20 14 15 16 16 16 15 16 16 17 17 17 16 15 15 15 16 23 22 20 17 18 17 17 15 15 15
1 3 2 2 2 2 3 4 5 6 8 8 10 12 14 14 15 16 18 18 18 18 16 15 16 16 16 15 15 16 16 16 16 18 17 16 15 13 14 13 14 15 15 15 14 13 14 15 17 18 18 17 16 14 22 23 25 25 22 15 14 16 17 16 16 16 15 15 17 19 17 17 16 16 19 25 25 22 18 18 17 16 17 16 15
4 1 0 1 1 2 4 5 6 7 7 9 10 12 14 14 15 16 17 17 17 16 15 16 15 15 15 15 15 15 16 17 17 16 15 15 15 14 13 13 14 14 14 13 13 13 14 14 16 18 17 18 18 15 21 23 25 25 22 14 15 15 16 16 16 16 16 14 15 14 19 18 18 17 20 25 26 23 18 17 17 17 17 17 16
1 0 0 0 1 3 4 6 8 7 7 9 10 11 12 12 14 15 16 16 15 13 13 13 13 13 13 13 13 14 15 15 15 14 13 13 13 13 14 14 14 13 13 14 14 13 14 14 14 16 14 17 19 14 16 23 23 24 27 16 14 14 17 18 17 15 14 15 15 15 15 22 21 20 20 25 25 26 19 16 16 16 17 19 15
3 5 5 2 1 2 2 3 2 2 6 8 9 10 10 10 11 12 13 13 12 11 12 13 12 13 14 14 13 14 15 14 14 14 13 13 13 13 13 13 14 12 12 12 13 13 14 14 14 14 15 17 16 17 13 23 24 26 27 24 14 17 17 15 15 14 15 15 16 19 14 20 25 22 20 25 26 26 22 16 16 16 16 14 14
3 3 3 2 2 1 3 4 3 4 4 7 8 8 9 10 11 13 12 11 11 11 11 12 13 13 14 14 14 12 13 12 12 12 12 12 11 11 11 12 11 11 12 12 12 12 12 12 12 14 14 15 14 15 11 18 23 24 24 29 16 16 15 13 14 13 15 16 17 16 16 18 25 24 20 23 25 25 26 16 17 15 14 16 17
1 2 1 2 1 0 1 1 2 4 6 6 8 9 9 9 10 11 10 9 9 11 11 11 12 12 12 12 12 12 11 10 11 11 11 11 10 11 10 10 10 10 11 12 12 12 11 12 12 12 13 13 13 11 14 12 20 23 24 25 27 19 17 14 16 18 18 16 14 14 15 17 22 25 21 22 23 26 22 16 16 15 18 20 17
3 4 3 2 3 2 2 2 2 2 4 5 7 9 8 9 9 8 9 9 9 10 10 10 10 11 11 11 11 11 11 10 10 10 11 10 10 10 10 9 9 10 10 11 12 12 11 12 13 13 13 13 10 12 12 16 17 25 23 26 26 26 19 15 16 17 16 16 17 15 14 13 20 23 23 22 23 22 20 24 18 18 19 19 14
4 4 3 2 3 4 3 3 3 3 3 5 6 8 10 10 7 5 6 8 9 9 9 9 10 10 10 10 10 9 10 9 9 10 10 10 10 10 10 9 9 10 11 11 10 10 10 11 12 12 11 12 13 12 13 13 21 22 25 26 27 28 25 20 15 16 16 16 16 15 15 11 18 20 22 21 19 23 25 23 20 17 17 11 11
3 3 3 3 4 4 5 5 4 4 4 4 6 7 9 9 7 6 6 7 8 8 8 9 9 9 10 10 10 10 10 10 9 9 9 8 9 9 9 9 9 9 10 10 10 10 10 11 11 12 10 10 8 8 8 8 9 15 18 23 25 26 28 27 23 19 23 23 20 16 11 10 16 17 14 11 8 13 21 21 20 16 12 13 13
5 5 3 4 4 5 6 6 6 5 5 5 5 6 7 8 7 6 6 6 7 7 7 7 8 8 8 8 9 9 9 9 8 7 8 8 8 8 7 8 9 10 9 9 10 10 10 10 11 11 10 9 8 9 8 10 5 5 7 11 14 16 23 24 20 18 20 16 17 16 8 12 13 20 22 22 22 19 16 15 11 10 12 14 13
5 2 2 4 5 6 6 6 6 5 5 6 6 7 6 6 6 6 7 6 7 7 8 7 8 7 7 7 8 8 9 8 9 8 8 7 8 7 7 7 8 8 9 10 10 9 8 9 8 9 10 10 11 10 10 6 8 7 6 4 6 9 10 12 14 15 14 17 16 16 10 9 10 11 14 12 13 13 15 14 9 12 14 15 15
5 4 4 6 6 7 7 7 7 6 6 6 7 7 6 6 6 6 7 8 8 9 8 9 7 7 6 7 7 7 7 8 8 7 5 7 4 1 1 3 9 8 7 5 3 3 4 5 5 6 6 7 7 9 7 7 9 3 3 7 6 7 9 10 15 20 15 15 15 9 7 9 12 15 15 15 15 14 10 14 12 14 14 14 14
5 5 6 6 7 8 8 7 6 5 5 6 7 7 7 7 7 6 7 8 8 8 9 8 7 7 8 8 7 7 5 5 6 6 8 8 10 13 10 7 7 10 14 13 9 5 4 4 4 3 3 3 5 6 11 16 15 16 10 6 10 15 16 14 16 20 19 15 12 11 15 16 16 14 15 17 17 17 16 16 14 18 15 14 14
6 7 8 8 8 8 8 9 7 7 7 7 7 6 7 7 8 8 8 8 8 7 7 7 6 6 6 5 6 5 4 4 5 7 5 7 7 9 12 16 14 11 12 12 13 11 7 5 4 4 4 1 4 7 10 12 15 15 16 15 12 11 15 18 21 15 14 16 15 15 17 17 17 19 19 19 18 18 16 17 17 17 16 14 14
Wind_Direction
191 181 181 181 180 179 182 177 182 186 187 189 189 189 190 193 185 187 193 189 183 180 191 193 193 192 196 197 197 196 204 203 209 216 215 206 199 197 177 190 187 187 195 201 208 217 230 237 226 225 229 228 226 237 228 322 125 87 108 130 130 300 96 190 105 292 65 285 140 296 118 159 163 185 224 253 203 114 154 160 165 136 93 111 125
188 182 182 179 183 180 180 178 181 184 185 187 190 190 189 194 192 186 193 192 189 182 189 193 192 193 192 195 197 195 198 204 204 204 210 204 199 197 186 190 188 187 195 198 210 210 215 225 224 220 226 233 231 234 235 176 150 188 142 153 96 337 210 6 100 173 192 187 175 167 235 140 34 183 162 213 139 124 124 109 86 101 116 125 107
189 186 182 182 182 178 179 178 181 185 183 188 184 188 189 194 192 184 191 194 194 185 186 193 194 196 195 195 196 198 199 203 210 203 207 207 193 198 197 192 191 190 194 198 206 209 212 216 214 213 219 225 214 221 209 195 194 184 188 172 148 173 315 88 218 249 249 66 49 168 190 166 144 166 156 171 133 121 141 159 157 138 137 132 150
197 187 183 181 181 178 179 180 180 182 180 185 184 188 188 192 190 185 191 196 194 189 187 193 196 194 198 199 197 207 193 198 207 209 206 210 202 193 197 196 194 195 196 198 204 205 207 210 212 212 208 215 219 221 207 199 189 184 167 162 255 264 165 144 212 177 297 131 167 218 190 163 140 155 153 162 160 149 156 137 131 120 114 101 160
198 195 184 179 181 181 180 179 179 181 181 185 185 185 189 190 191 186 189 194 196 188 185 190 192 194 192 200 200 207 203 200 201 206 204 206 211 193 198 197 195 203 197 200 203 202 203 208 210 211 204 200 213 214 210 208 188 168 190 129 191 253 136 134 162 215 199 3 292 211 166 190 160 155 137 48 135 147 145 125 109 140 112 158 74
206 193 182 181 181 180 177 181 182 182 182 184 186 185 187 185 188 187 190 192 195 192 184 188 190 192 191 194 196 200 201 197 203 203 198 199 209 196 196 195 195 201 204 200 203 201 199 203 206 210 202 200 208 216 209 210 176 191 160 202 163 244 324 127 160 198 226 169 284 332 336 10 13 40 154 134 357 128 79 127 148 135 117 119 117
209 199 186 180 179 179 180 183 184 183 181 181 184 183 186 183 187 187 190 189 193 191 186 189 191 194 195 198 197 197 200 200 202 205 202 197 208 202 195 191 195 199 201 201 204 200 199 201 205 208 206 200 201 211 213 210 183 214 172 163 199 143 166 265 173 176 185 207 219 234 212 295 41 331 135 136 167 169 137 203 156 145 124 136 176
191 193 189 183 179 180 182 183 186 184 179 179 181 182 184 183 184 188 190 191 191 191 189 190 192 192 196 199 199 199 201 199 198 203 207 204 204 211 194 193 191 199 202 199 201 200 199 200 202 206 207 202 195 206 215 217 174 184 188 133 175 156 173 221 226 164 180 198 203 236 214 285 90 337 344 312 131 168 173 249 185 149 164 175 168
193 195 185 184 183 184 182 182 186 183 179 179 182 181 181 183 183 186 189 190 190 192 190 191 197 193 195 197 201 202 202 202 195 198 203 208 206 207 204 194 188 193 203 200 198 201 197 202 200 204 204 205 196 209 205 201 191 185 164 168 176 172 202 195 238 214 185 179 181 206 257 203 187 210 236 199 254 208 181 177 196 168 226 159 182
197 202 185 185 184 185 184 182 182 185 182 180 179 178 179 180 183 186 190 192 190 190 192 193 197 196 197 198 200 200 202 202 200 194 201 201 208 202 205 197 191 191 199 204 195 200 199 199 203 204 206 203 197 213 207 191 192 187 179 179 180 199 190 196 211 230 240 124 162 170 200 210 245 200 208 213 201 232 280 217 165 195 197 193 163
196 203 190 186 185 185 180 181 184 185 181 179 179 178 178 181 183 186 188 189 190 191 192 195 197 200 199 199 199 201 200 200 200 196 194 198 202 201 200 198 197 195 198 199 200 197 200 198 206 205 205 202 200 206 210 197 189 192 185 182 181 203 195 201 210 225 216 240 150 188 189 203 204 198 210 215 196 188 210 246 186 181 189 176 188
190 196 191 186 185 185 183 183 183 185 181 181 182 179 179 180 181 184 187 188 189 190 192 195 197 199 201 199 200 201 199 199 199 198 193 197 198 199 200 198 202 202 202 200 202 202 197 200 205 207 203 204 200 201 203 209 199 186 183 185 187 203 205 203 210 213 215 208 210 186 202 210 195 217 195 212 237 204 217 252 297 51 20 142 164
193 188 187 186 187 185 186 183 182 184 185 183 184 182 180 180 181 182 186 187 188 188 191 194 195 198 200 201 201 200 202 201 198 201 195 200 198 199 196 201 200 204 203 203 200 202 196 198 199 203 204 202 203 195 202 201 206 181 183 191 192 197 209 200 209 212 215 207 211 209 194 212 201 204 262 227 181 241 260 228 274 169 193 206 173
191 189 187 186 187 187 186 184 182 184 185 184 185 183 181 181 181 183 185 186 187 187 188 191 195 198 199 201 200 198 202 201 199 201 200 200 203 204 200 200 200 204 204 205 206 199 199 196 197 198 198 196 198 197 196 193 191 193 187 194 189 197 204 208 212 217 215 222 216 227 212 208 211 192 199 232 207 191 206 227 240 269 214 203 170
198 187 191 188 187 187 187 186 184 185 186 184 185 184 181 182 181 183 184 186 187 188 188 191 193 196 197 200 200 198 200 200 201 203 203 203 204 207 206 205 205 205 207 204 207 206 199 194 195 198 193 192 192 194 194 190 186 196 200 191 201 196 202 211 207 218 215 216 221 224 231 218 217 212 195 190 241 201 199 213 217 219 220 246 178
192 205 194 190 186 187 188 187 186 185 185 186 186 185 184 183 182 182 182 183 186 186 188 189 191 193 197 199 199 197 198 199 201 203 205 206 205 207 206 210 215 208 205 206 202 207 204 201 193 198 195 192 191 192 192 192 188 192 198 195 202 202 195 208 214 213 220 216 219 220 224 232 207 221 226 192 208 239 195 232 198 220 240 203 226
183 201 197 191 185 187 191 189 187 186 187 188 186 186 185 182 181 182 182 181 184 187 188 188 189 190 195 196 196 197 198 199 202 202 205 205 208 209 210 210 211 215 208 204 205 202 204 203 199 200 199 196 192 192 193 192 189 194 196 197 201 211 194 203 214 213 220 218 215 216 218 228 229 211 228 226 193 220 230 204 225 217 217 255 206
196 197 191 188 187 188 191 190 189 189 190 189 186 187 184 183 182 180 181 183 184 185 186 185 187 190 193 195 196 198 200 202 204 204 204 205 207 210 212 210 211 212 213 210 203 202 202 201 201 200 199 200 198 198 199 196 192 196 199 201 201 209 200 193 209 215 214 221 216 214 213 217 224 216 211 226 200 202 213 213 207 219 209 225 254
191 201 190 187 188 188 191 192 193 191 189 188 186 185 186 186 184 183 183 184 184 185 185 186 186 189 191 193 195 197 199 201 203 205 203 206 209 207 211 212 211 210 208 212 205 204 203 201 201 201 200 200 199 199 194 196 195 202 200 203 201 203 207 201 202 213 215 214 218 217 210 217 215 218 212 209 212 193 208 211 210 208 206 222 233
195 193 188 187 190 191 192 193 193 191 189 189 186 186 188 188 185 187 187 185 184 184 183 185 187 189 191 192 194 196 197 200 200 201 204 207 209 211 209 212 212 209 209 205 209 208 203 206 205 203 202 204 201 202 200 197 195 201 203 204 201 198 206 207 204 205 214 208 212 216 214 212 214 214 216 210 207 203 203 209 209 205 210 213 218
194 189 189 191 191 192 192 194 194 191 188 188 187 189 189 188 188 188 186 186 186 187 185 187 187 190 189 189 191 193 196 198 199 201 205 207 209 210 212 213 208 212 209 206 206 208 206 206 209 207 207 203 200 200 199 195 198 197 201 206 206 194 203 209 207 208 207 212 208 212 215 210 212 213 214 215 208 201 205 211 208 205 210 205 209
195 194 193 197 192 194 193 190 191 190 189 192 190 189 189 190 190 190 188 188 189 188 188 186 187 189 190 191 192 192 194 196 198 200 203 206 206 207 208 209 211 208 210 209 204 207 207 205 210 207 206 205 199 198 200 197 198 197 199 200 208 197 201 204 203 211 207 211 206 208 213 211 208 214 213 216 215 204 204 208 205 209 207 204 203
200 202 188 201 197 193 189 186 191 193 191 192 192 190 190 191 191 191 190 191 190 189 188 185 186 187 190 190 191 192 191 195 197 198 202 204 205 206 203 207 210 209 205 210 206 207 204 205 206 206 203 205 201 200 203 203 201 200 199 201 204 202 202 202 204 209 210 208 211 206 210 209 205 210 212 214 217 215 207 209 209 208 209 209 199
196 197 183 198 200 189 185 184 190 194 192 192 195 194 191 189 191 191 194 192 191 188 186 185 185 188 188 188 191 192 193 195 198 200 203 206 206 205 203 205 206 210 206 204 209 206 204 203 205 204 201 202 202 202 204 207 205 204 202 203 202 203 203 203 204 207 209 208 209 207 209 209 206 206 208 210 214 215 212 209 212 208 210 212 208
188 196 194 190 184 177 184 184 187 193 195 193 195 196 196 193 190 191 194 192 191 189 188 187 188 189 189 190 191 193 195 198 200 202 206 207 208 208 204 205 205 209 210 203 204 206 205 203 204 202 201 201 202 203 202 207 208 208 208 206 205 203 204 204 206 207 207 207 207 208 206 208 207 206 205 208 210 211 211 210 210 209 208 209 211
161 172 179 187 177 169 178 187 185 191 196 194 196 199 199 197 195 193 192 191 191 189 188 187 189 190 189 190 192 194 197 199 202 205 207 208 209 210 208 204 206 208 209 209 202 204 204 203 203 202 201 200 201 202 203 205 208 208 209 210 207 206 204 204 207 209 208 208 208 207 207 207 208 208 206 206 208 208 209 211 209 209 207 204 209
184 188 188 190 182 179 181 185 189 193 197 198 198 200 202 199 200 197 192 191 189 190 188 187 189 190 189 190 191 193 196 200 201 205 206 207 209 210 210 208 204 208 207 210 206 203 202 202 201 201 201 201 201 203 203 204 207 208 207 210 212 208 207 206 207 209 210 210 210 208 207 208 209 209 208 204 203 206 208 209 209 208 206 206 205
175 180 180 182 186 181 179 187 193 197 197 201 201 201 202 200 201 200 196 192 189 190 188 187 188 189 189 191 191 192 195 198 200 200 203 206 208 209 208 209 205 205 209 209 211 204 202 202 201 202 202 201 202 204 203 203 204 206 206 208 212 212 209 209 209 210 212 214 212 212 211 209 208 208 207 205 202 203 203 208 207 206 206 206 209
156 160 167 175 178 188 190 191 196 199 199 200 201 202 200 202 201 201 203 197 189 187 188 188 188 190 189 188 188 191 195 197 198 197 201 203 206 206 206 207 208 208 208 210 211 211 203 202 202 201 201 202 204 204 204 202 203 204 206 207 209 213 213 212 211 211 213 216 217 214 215 213 206 206 202 202 202 198 200 203 203 203 204 206 208
155 162 169 175 179 182 192 192 195 200 199 200 202 201 201 201 202 200 204 202 189 187 187 189 190 192 187 184 186 187 190 193 195 197 198 200 202 204 206 207 209 210 208 208 211 212 210 204 202 202 202 203 206 206 200 195 196 202 203 207 207 210 214 214 213 214 215 215 219 220 216 210 204 201 198 199 198 196 201 203 200 199 200 203 204
159 150 170 168 180 181 187 192 194 198 198 200 199 200 202 203 201 201 200 202 195 186 189 192 193 189 185 185 185 188 188 190 194 195 196 197 200 202 203 204 208 209 210 205 209 212 214 211 204 203 204 206 206 207 189 188 192 195 202 206 206 208 211 215 216 215 216 216 218 219 224 202 201 196 197 195 197 197 195 205 203 200 199 200 201
185 167 161 164 178 187 187 192 196 196 198 199 199 197 198 204 199 201 198 199 200 192 192 193 191 186 186 186 188 188 188 190 190 195 194 194 197 200 203 203 206 209 207 211 210 211 213 215 209 206 207 208 210 201 183 186 189 192 196 204 209 210 210 214 217 218 218 218 218 219 219 219 202 203 198 193 196 195 195 201 205 202 199 203 209
202 185 199 217 217 194 193 201 199 197 197 199 197 198 199 200 200 195 196 198 201 197 188 190 192 189 188 186 187 188 189 189 191 191 192 192 194 198 201 203 205 204 205 208 210 208 211 214 215 210 211 211 215 196 183 185 189 192 195 201 212 212 213 215 215 216 219 218 218 217 220 217 218 194 198 196 190 193 196 197 203 205 203 201 206
219 214 200 184 196 245 213 193 202 201 199 199 199 200 199 195 198 193 197 199 196 198 188 188 189 192 188 187 187 189 190 191 189 188 191 193 196 199 201 202 203 203 206 208 210 211 211 212 216 217 215 217 217 193 183 185 190 192 195 198 212 213 217 218 217 216 217 218 216 217 217 216 219 195 191 198 192 193 189 196 203 205 206 205 208
286 291 282 298 99 117 190 205 218 210 199 197 197 199 195 196 198 196 194 193 194 197 187 186 190 191 188 187 188 189 189 188 187 187 191 196 199 200 201 203 203 204 204 206 208 211 213 213 214 219 222 222 224 190 182 185 189 192 196 199 211 217 219 220 219 218 218 217 216 217 216 216 212 207 187 191 191 193 191 196 200 205 210 212 207
254 68 79 93 306 287 290 234 230 214 213 205 197 194 196 196 196 199 195 194 192 194 192 187 191 190 190 188 187 187 187 186 187 189 193 198 200 200 200 201 207 208 209 209 212 215 215 216 217 219 222 223 223 187 183 184 188 191 192 198 209 218 223 223 221 220 218 218 218 216 216 214 210 210 183 179 184 187 192 196 200 205 209 212 215
88 93 98 90 104 253 261 237 225 235 228 220 207 193 197 194 195 198 194 194 193 194 197 189 192 192 192 190 189 187 188 188 190 192 197 199 199 200 200 199 206 212 210 212 213 214 218 219 218 219 222 225 228 188 183 186 188 189 186 200 205 213 222 225 227 222 220 220 217 213 215 212 210 212 178 178 177 179 193 194 197 200 203 207 214
201 122 206 211 212 229 219 232 241 229 237 235 215 197 192 195 195 195 194 194 196 197 195 191 193 193 192 191 191 191 190 191 191 195 198 199 199 200 202 200 206 210 215 216 213 216 217 219 221 222 219 223 228 188 185 187 191 187 187 196 202 210 217 220 226 226 226 224 220 209 206 214 212 212 178 178 178 179 191 193 194 195 198 205 208
71 20 355 349 28 347 302 270 245 239 225 228 225 206 192 196 195 197 196 196 197 195 192 193 193 192 194 193 193 193 194 194 195 198 198 197 198 199 201 200 206 210 216 217 217 217 218 219 221 223 219 221 229 211 185 189 191 187 191 198 201 209 216 221 222 224 225 226 225 211 205 208 212 210 174 182 182 182 191 191 195 202 204 202 200
67 331 94 82 322 279 256 245 234 227 226 214 215 208 197 192 194 197 198 198 197 190 188 191 192 192 192 192 193 194 195 196 197 197 198 199 197 199 199 200 205 209 212 216 218 221 222 223 223 225 223 223 229 226 183 192 188 189 193 196 204 205 215 218 219 224 223 226 227 226 205 209 209 208 178 184 185 188 194 193 194 201 206 212 200
17 49 5 317 252 245 278 330 25 203 208 211 206 202 196 188 190 200 202 195 189 183 183 187 191 192 192 191 192 193 194 197 197 197 197 199 199 202 201 202 206 208 211 214 218 223 226 228 229 227 229 227 226 230 192 188 191 192 195 198 205 209 215 215 219 222 225 227 227 228 226 200 205 207 184 188 185 190 196 199 200 206 201 196 195
51 14 319 312 298 79 248 227 203 223 238 210 203 196 196 186 191 200 200 188 181 182 183 185 188 190 191 192 193 191 192 196 197 196 197 200 201 202 204 204 208 208 212 214 215 222 228 234 234 234 239 240 234 222 221 188 194 195 197 203 209 217 215 222 225 230 227 228 223 219 225 200 196 200 188 186 188 188 195 200 206 202 178 167 188
76 140 144 245 178 168 55 9 241 212 209 219 195 186 184 181 191 193 194 188 176 177 178 180 182 188 191 193 192 189 188 193 195 193 194 197 197 201 202 203 207 213 216 220 221 224 228 239 245 247 247 245 245 237 220 186 193 196 199 204 214 218 209 211 227 235 234 231 229 233 230 208 186 196 187 186 188 190 191 203 200 186 173 176 187
76 77 91 78 75 54 67 27 5 191 201 195 188 173 172 174 184 182 190 176 168 168 170 173 177 184 187 191 190 190 189 189 189 190 193 193 195 198 201 203 204 212 219 228 231 232 235 239 244 246 246 250 242 239 218 193 185 196 198 204 211 221 216 215 221 235 237 240 244 238 238 201 184 191 187 184 188 188 194 196 197 187 176 177 190
69 58 57 58 86 102 97 75 57 77 152 178 172 168 163 157 137 140 150 149 149 154 160 169 173 179 182 187 186 187 183 185 183 188 190 196 199 200 207 202 213 222 225 232 231 231 229 236 242 245 251 253 253 248 252 202 190 189 199 202 210 213 222 226 227 235 240 246 250 249 247 194 185 188 186 183 186 192 195 191 192 184 173 175 187
114 117 84 73 90 97 99 97 88 88 112 129 135 133 138 151 158 160 154 146 149 153 163 166 169 172 179 183 182 182 184 184 186 188 189 191 198 201 210 209 213 217 224 228 233 235 238 242 245 248 242 247 248 274 275 261 175 199 202 206 205 208 214 220 224 230 233 234 238 248 253 191 181 178 174 173 186 194 196 191 190 179 181 183 185
96 74 98 105 101 102 108 119 115 97 91 101 109 126 140 152 154 157 144 147 152 156 157 162 162 168 172 184 182 186 182 176 178 178 181 190 199 208 204 212 217 222 221 224 229 231 238 241 249 255 259 263 260 263 265 260 237 169 201 208 215 220 220 221 222 233 235 236 236 239 200 180 174 177 180 186 189 188 189 193 187 190 191 187 184
97 109 108 111 107 101 102 101 109 114 117 122 126 124 125 127 132 141 138 137 139 147 149 154 157 156 161 166 175 161 166 168 180 183 181 185 188 198 207 207 217 224 227 228 229 237 238 240 245 251 262 267 272 272 273 329 5 5 337 298 221 224 224 215 226 229 230 227 228 227 182 164 168 171 190 189 192 181 188 193 191 195 194 189 184
162 125 112 103 105 101 97 94 88 86 93 97 92 86 92 99 104 109 126 134 136 142 138 138 139 135 136 147 153 154 168 167 169 182 93 41 15 155 164 159 53 34 34 23 341 332 322 332 352 358 355 341 329 320 330 350 324 332 261 297 279 215 221 243 237 231 225 224 229 213 147 174 174 187 189 189 188 181 181 189 193 199 194 189 180
138 127 115 107 106 108 103 96 89 76 85 106 109 113 110 105 91 74 92 104 99 107 117 113 114 127 140 145 151 163 167 158 150 155 113 75 49 59 53 56 73 70 70 56 50 54 21 359 349 357 20 333 319 314 330 330 325 322 321 266 264 284 286 263 240 228 230 237 220 190 204 196 193 192 195 191 190 186 183 184 185 194 194 192 182
132 132 129 119 107 104 100 95 91 92 86 79 80 85 93 99 97 97 95 98 113 114 104 105 116 101 58 86 96 78 122 83 87 78 93 122 119 68 64 80 89 98 95 92 96 107 90 40 32 354 348 237 254 297 316 316 316 312 307 304 291 266 265 275 277 262 228 228 230 218 216 211 202 199 197 197 192 189 183 180 185 185 191 189 179